SL-16 DEB, 22370

Orbit data source: Space-Track

SL-16 DEB, 22370 is space debris in LEO originally from a launch on Fri, 25 Dec 1992 UTC launched from the Tyuratam Missile And Space Complex (TTMTR). Debris objects in space refer to the collection of defunct objects orbiting the Earth. Examples of debris include non-operational satellites, rocket bodies, and fragments generated from explosions, collisions, or faulty payload assembly.

Loading next visibility...
Identifier
22370, 1992-093BK
Orbit
LEO
Country
Flag of CISCIS
Related business
Manufacturer
Unknown
Mission
Spacecraft
Bus & Motor
Unknown
Mass
Unknown
Launch date (UTC)
1992-12-25 (33 years ago)
Launch vehicle
Unknown
Launch site
Tyuratam Missile And Space Complex (TTMTR)
Object type
Payload
Rocket body
Debris
Shape & HBR
Unknown shape, 0.1 m
Radar Cross Section
Small (<0.1 m²)

Expand to show TLE details & history
Last TLE update: 19 hours ago

TLE from 19 hours ago
0 SL-16 DEB
1 22370U 92093BK  26036.76692863  .00000305  00000-0  19993-3 0  9993
2 22370  70.9750 145.8626 0106288  47.9526 114.5194 14.07054109693985
Epoch: 2026-02-05T18:24Z
TLE epoch observation values (Epoch: 2026-02-05T18:24:22.633Z)
Latitude
15.49286°
Longitude
-91.60201°
Altitude
903.821 km
Speed
7.385 km/s
True Right ascension
21h 21m 37s
True Declination
15° 24' 23"
Sunlit
Object was in daylight at epoch
Visualization orbit readout
Latitude
Unknown
Longitude
Unknown
Altitude
Unknown
Speed
Unknown
Apparent Right ascension
Unknown
Apparent Declination
Unknown
Sunlit
N/A
Visualization observer readout
Local Sidereal Time
15:51:26
Azimuth
Unknown
Elevation
Unknown
Doppler factor
Unknown
Orbital elements
Apogee altitude
944.416 km
Perigee altitude
790.393 km
Semi-major axis
7,245.542 km
Eccentricity
0.01063
Inclination
70.975°
RAAN
145.8626°
Arg. of periapsis
47.9526°
True anomaly
115.62139°
Mean anomaly
114.5194°
Eccentric anomaly
115.07101°
Mean motion
3.51914 °/min
Orbital period
102.3 mins
BSTAR
0.00019993
Loading maneuver chart data...
Computing Atmospheric mass density...

Documentation

Showing up to 5 results
|